OneWeb SL0044

operational
NORAD ID: 45150 Int'l Des: 2020-008 Owner: ONEWEB Country: UK Constellation: oneweb
LEOCIRCULARPOLARONEWEB_TYPE

About OneWeb SL0044

Description loading...

Live Position

Loading 3D Globe...

Upcoming Passes

Altitude History

Altitude vs Time

uPlot chart will show altitude changes over time

Two-Line Element Set

1 45150U 20008V 25257.58153574 -.00000257 00000-0 -77309-3 0 9999
2 45150 87.8741 91.2212 0001873 79.9571 280.1767 13.10375561272381
Epoch: Sep 14, 2025 • Age: 17 hours

Current Status

Altitude 1225.1 km
Velocity 7.24 km/s
Sub-Earth Point 30.19°N, 167.16°E
Launch Date Feb 6, 2020
Age 5.6 years
Type internet

Technical Details

Classification Payload
Mass 148.00 kg
Dry Mass 140.00 kg
Total Mass 148.00 kg
Length 1.30 m
Diameter 1.00 m
Span 5.00 m
Shape Trapezoid+2 pan
Manufacturer ONEWUS
Bus Type ARROW
Phase Status In Orbit
Owner/State ONEWEB/UK

Large Constellations

Loading constellations...